TimeCDT,TemperatureF,Dew PointF,Humidity,Sea Level PressureIn,VisibilityMPH,Wind Direction,Wind SpeedMPH,Gust SpeedMPH,PrecipitationIn,Events,Conditions,WindDirDegrees,DateUTC
12:53 AM,72.0,54.0,53,29.82,10.0,SSW,15.0,20.7,N/A,,Clear,210,2013-05-15 05:53:00
1:53 AM,70.0,52.0,53,29.83,10.0,SSW,10.4,19.6,N/A,,Clear,210,2013-05-15 06:53:00
2:53 AM,69.1,53.1,57,29.84,10.0,SSW,10.4,-,N/A,,Clear,200,2013-05-15 07:53:00
3:53 AM,68.0,53.1,59,29.83,10.0,SSW,9.2,-,N/A,,Clear,210,2013-05-15 08:53:00
4:53 AM,66.9,53.1,61,29.84,10.0,SSW,10.4,-,N/A,,Clear,210,2013-05-15 09:53:00
5:53 AM,64.9,53.1,65,29.85,10.0,South,8.1,-,N/A,,Clear,190,2013-05-15 10:53:00
6:53 AM,64.0,54.0,70,29.86,10.0,SSW,9.2,-,N/A,,Clear,200,2013-05-15 11:53:00
7:53 AM,68.0,55.0,63,29.87,10.0,SSW,12.7,-,N/A,,Clear,200,2013-05-15 12:53:00
8:53 AM,71.1,57.0,61,29.88,10.0,SSW,8.1,18.4,N/A,,Clear,210,2013-05-15 13:53:00
9:53 AM,73.9,57.0,55,29.88,10.0,SW,13.8,19.6,N/A,,Clear,220,2013-05-15 14:53:00
10:53 AM,77.0,57.9,52,29.86,10.0,WSW,12.7,-,N/A,,Clear,240,2013-05-15 15:53:00
11:53 AM,79.0,59.0,50,29.85,10.0,SW,10.4,19.6,N/A,,Clear,230,2013-05-15 16:53:00
12:53 PM,81.0,61.0,50,29.85,9.0,South,10.4,-,N/A,,Clear,190,2013-05-15 17:53:00
1:53 PM,82.0,61.0,49,29.84,10.0,South,9.2,16.1,N/A,,Clear,180,2013-05-15 18:53:00
2:53 PM,82.0,63.0,52,29.83,10.0,South,10.4,-,N/A,,Clear,180,2013-05-15 19:53:00
3:53 PM,82.0,64.0,54,29.82,10.0,South,11.5,19.6,N/A,,Clear,180,2013-05-15 20:53:00
4:53 PM,80.1,64.9,60,29.81,10.0,South,10.4,-,N/A,,Clear,190,2013-05-15 21:53:00
5:53 PM,79.0,66.0,64,29.81,10.0,SSW,15.0,20.7,N/A,,Clear,210,2013-05-15 22:53:00
6:53 PM,77.0,64.9,66,29.81,10.0,SSW,12.7,20.7,N/A,,Clear,200,2013-05-15 23:53:00
7:53 PM,73.9,64.0,71,29.81,9.0,South,10.4,-,N/A,,Clear,190,2013-05-16 00:53:00
8:53 PM,71.1,64.0,78,29.81,10.0,South,9.2,-,N/A,,Clear,190,2013-05-16 01:53:00
9:53 PM,69.1,64.0,84,29.86,8.0,South,8.1,-,N/A,,Clear,190,2013-05-16 02:53:00
10:17 PM,69.8,64.4,83,29.91,9.0,South,15.0,21.9,N/A,,Mostly Cloudy,180,2013-05-16 03:17:00
10:29 PM,68.0,62.6,83,29.91,10.0,South,10.4,-,N/A,,Scattered Clouds,190,2013-05-16 03:29:00
10:53 PM,66.9,62.1,84,29.88,10.0,South,6.9,-,N/A,,Clear,190,2013-05-16 03:53:00
11:53 PM,63.0,60.1,90,29.85,10.0,South,5.8,-,N/A,,Clear,180,2013-05-16 04:53:00